Regional Weather Roundup
Issued by NWS Portland, ME

Home | Current Version | Previous Version | Text Only | Print | Product List | Glossary On
Versions: 1 2 3 4 5 6 7 8 9 10 11 12 13 14 15 16 17 18 19 20 21 22 23 24 25 26 27 28 29 30 31 32 33 34 35 36 37 38 39 40 41 42 43 44 45 46 47 48 49 50
000
ASUS41 KGYX 020810
RWRGYX
WEATHER ROUNDUP FOR MAINE AND NEW HAMPSHIRE
NATIONAL WEATHER SERVICE GRAY ME
400 AM EDT WED SEP 02 2015

MEZ002-005-006-010-012-015-018-020-021-024-026-027-029-020900-
MAINE

CITY           SKY/WX    TMP DP  RH WIND       PRES   REMARKS
PORTLAND       CLEAR     59  58  96 CALM      29.98F
SANFORD        CLEAR     54  48  82 CALM      29.99F
BAR HARBOR     CLEAR     59  59 100 SW6       29.97F
WISCASSET      CLOUDY    56  54  93 CALM      29.99F
ROCKLAND       CLEAR     55  55 100 CALM      29.97F
FRYEBURG       PTCLDY    53  53 100 CALM      30.00F
LEWISTONAUBURN CLEAR     54 N/A N/A CALM      29.98F
AUGUSTA        CLEAR     59  58  96 S5        29.98F
WATERVILLE       N/A     57  54  88 CALM      29.95S
BANGOR         PTCLDY    57  55  93 S5        29.97F
GREENVILLE       N/A     64  59  83 CALM      29.97F
MILLINOCKET    PTCLDY    58  56  93 CALM      29.96S
HOULTON        MOCLDY    58  54  86 SW6       29.92F
PRESQUE ISLE   MOCLDY    55  50  82 CALM      29.91F
FRENCHVILLE    MOCLDY    59  55  87 S7        29.89F
CARIBOU        MOCLDY    56  54  93 SW5       29.90F
$$

NHZ002-005-008-009-011-012-014-020900-
NEW HAMPSHIRE

CITY           SKY/WX    TMP DP  RH WIND       PRES   REMARKS
PORTSMOUTH     CLEAR     59  56  91 CALM      29.98F
ROCHESTER      CLEAR     59  56  89 CALM      29.99F
NASHUA         CLEAR     60  58  92 CALM      30.01F
MANCHESTER     PTCLDY    62  58  86 S3        29.99F
CONCORD        PTCLDY    57  55  93 CALM      30.01S
LACONIA        CLEAR     63  57  82 SW7       30.00F
PLYMOUTH       FOG       55  54  97 CALM      30.02S VSB 1/2
BERLIN         PTCLDY    49  46  90 CALM      30.03F
WHITEFIELD     CLEAR     51  48  89 CALM      30.04S
JAFFREY        CLEAR     62  61  96 S3        30.05S
KEENE          CLEAR     55  52  88 CALM      30.04F
LEBANON        FOG       61  59  93 CALM      30.02F VSB 1/4
MT WASHINGTON  PTCLDY    59  12  15 W30         N/A
$$

VTZ005-007-008-020900-
VERMONT

CITY           SKY/WX    TMP DP  RH WIND       PRES   REMARKS
ST JOHNSBURY     N/A     57  55  93 MISG      30.01F
MONTPELIER     FOG       54  53  97 CALM      30.06F VSB 3/4
BURLINGTON     CLEAR     61  58  90 CALM      30.00F
$$

MAZ007-012-024-CTZ003-RIZ002-NYZ038-NYZ072-020900-
SOUTHERN NEW ENGLAND AND NY

CITY           SKY/WX    TMP DP  RH WIND       PRES   REMARKS
BOSTON         CLEAR     68  62  81 SW10      30.01S
WORCESTER      CLEAR     64  61  90 W10       30.04F
NANTUCKET      CLEAR     63  60  90 S5        30.04F
PROVIDENCE     CLEAR     64  62  93 S3        30.03F
HARTFORD       PTCLDY    63  60  90 CALM      30.02S
ALBANY         CLEAR     66  62  87 SW3       30.03S
NEW YORK CITY  CLEAR     76  65  68 CALM      30.02F
$$

ANZ081-ANZ082-ANZ150-NHZ014-MEZ023>029-020900-
COASTAL MARINE OBSERVATIONS

STATION/POSITION TIME  TEMP    WIND        PRES    WAVE
                       AIR SEA DIR/SP/G            HT/PER
                 (UTC) (F)     (DEG/KT/KT) (MB)    (FT/S)
MOUNT DESERT ROC 0800   60     200/ 13/ 13 1015.3F
MATINICUS ROCK   0800          220/ 15/ 15 1014.8F
ISLE OF SHOALS   0800   66     230/  6/  6 1015.1F
JEFFREYS LEDGE   0703      68                N/A     2/ 3
CASHES LEDGE BUO 0750   67                 1015.4F   1/ 9
GEORGES BANK BUO 0750   65 69  350/  6/  8 1016.4F   3/ 7
$$

.............KEY..............
   WCI - WIND CHILL
   TC  - TEMPERATURE IN CELSIUS
   VSB - VISIBILITY IN MILES
   HX  - HEAT INDEX
   FAIR- INDICATES FEW OR NO CLOUDS BELOW 12,000 FT, WITH NO
         SIGNIFICANT WEATHER AND/OR OBSTRUCTIONS TO VISIBILITY.




USA.gov is the U.S. government's official web portal to all federal, state and local government web resources and services.